Weather History for Madisonville, KY

Change the Weather History Date:

Saturday, March 23, 2013

  Actual Average (KOWB) Record (KOWB)
Temperature  
Mean Temperature 48 °F -  
Max Temperature 57 °F 59 °F 79 °F (1935)
Min Temperature 39 °F 34 °F 13 °F (1968)
Degree Days  
Heating Degree Days 18    
Moisture  
Dew Point 34 °F    
Average Humidity 60    
Maximum Humidity 82    
Minimum Humidity 46    
Precipitation  
Precipitation 0.00 in - - ()
Sea Level Pressure  
Sea Level Pressure 29.93 in    
Wind  
Wind Speed 6 mph (ENE)    
Max Wind Speed 13 mph    
Max Gust Speed 18 mph    
Visibility 10 miles    
Events Rain    
Averages and records for this station are not official NWS values.
T = Trace of Precipitation, MM = Missing Value Source: NWS Daily Summary

Daily Weather History Graph

Daily Weather History Graph

Search for Another Location

Airport:

Trip Planner

Search our weather history database for the weather conditions in past years. The results will help you decide how hot, cold, wet, or windy it might be!

Date:

Astronomy

Mar. 23, 2013 Rise Set
Actual Time 6:48 AM CDT 7:04 PM CDT
Civil Twilight 6:22 AM CDT 7:30 PM CDT
Nautical Twilight 5:51 AM CDT 8:01 PM CDT
Astronomical Twilight 5:20 AM CDT 8:32 PM CDT
Moon 3:34 PM CDT 4:20 AM CDT
Length of Visible Light 13h 08m
Length of Day
12h 16m
Waxing Gibbous, 85% of the Moon is Illuminated
Mar 23
Waxing Gibbous
Mar 27
Full
Apr 2
Last Quarter
Apr 10
New
Apr 18
First Quarter

Hourly Weather History & Observations

Time (CDT) Temp. Windchill Dew Point Humidity Pressure Visibility Wind Dir Wind Speed Gust Speed Precip Events Conditions
12:15 AM 39.7 °F - 34.5 °F 82% 30.02 in 10.0 mi Calm Calm - N/A   Overcast
12:35 AM 39.7 °F 36.5 °F 33.1 °F 77% 30.01 in 10.0 mi ENE 4.6 mph - N/A   Overcast
12:55 AM 40.1 °F - 31.5 °F 71% 30.01 in 10.0 mi Calm Calm - N/A   Overcast
1:15 AM 39.7 °F 37.6 °F 32.0 °F 74% 30.01 in 10.0 mi ENE 3.5 mph - N/A   Overcast
1:35 AM 39.7 °F - 32.0 °F 74% 30.01 in 10.0 mi Calm Calm - N/A   Overcast
1:55 AM 39.7 °F 36.5 °F 30.9 °F 71% 30.01 in 10.0 mi NE 4.6 mph - N/A   Overcast
2:15 AM 40.1 °F 36.1 °F 30.7 °F 69% 30.00 in 10.0 mi NE 5.8 mph - N/A   Overcast
2:35 AM 39.7 °F 35.6 °F 30.4 °F 69% 29.99 in 10.0 mi NE 5.8 mph - N/A   Overcast
2:55 AM 39.7 °F 36.5 °F 30.4 °F 69% 29.98 in 10.0 mi ENE 4.6 mph - N/A   Overcast
3:15 AM 39.7 °F 35.6 °F 29.3 °F 66% 29.99 in 10.0 mi NE 5.8 mph - N/A   Overcast
3:35 AM 39.7 °F 37.6 °F 29.8 °F 68% 29.98 in 10.0 mi ENE 3.5 mph - N/A   Overcast
3:55 AM 39.4 °F 37.2 °F 30.7 °F 71% 29.98 in 10.0 mi ENE 3.5 mph - N/A   Overcast
4:15 AM 39.6 °F 37.4 °F 30.9 °F 71% 29.98 in 10.0 mi NE 3.5 mph - N/A   Overcast
4:35 AM 39.4 °F 35.2 °F 31.5 °F 73% 29.99 in 10.0 mi NNE 5.8 mph - N/A   Overcast
4:55 AM 39.4 °F 35.2 °F 30.4 °F 70% 29.99 in 10.0 mi NE 5.8 mph - N/A   Overcast
5:15 AM 39.4 °F 36.1 °F 30.9 °F 72% 29.99 in 10.0 mi NE 4.6 mph - N/A   Overcast
5:35 AM 39.4 °F 35.2 °F 30.9 °F 72% 29.99 in 10.0 mi NE 5.8 mph - N/A   Overcast
5:55 AM 39.4 °F 35.2 °F 30.9 °F 72% 30.00 in 10.0 mi NE 5.8 mph - N/A   Overcast
6:15 AM 39.2 °F 35.0 °F 31.5 °F 74% 30.01 in 10.0 mi NNE 5.8 mph - N/A   Overcast
6:35 AM 39.2 °F 34.2 °F 30.7 °F 72% 30.01 in 10.0 mi NE 6.9 mph - N/A   Overcast
6:55 AM 39.2 °F 34.2 °F 29.5 °F 68% 30.01 in 10.0 mi NE 6.9 mph - N/A   Overcast
7:15 AM 39.2 °F 35.0 °F 29.8 °F 69% 30.01 in 10.0 mi NE 5.8 mph - N/A   Overcast
7:35 AM 39.4 °F 33.8 °F 30.0 °F 69% 30.02 in 10.0 mi ENE 8.1 mph - N/A   Overcast
8:15 AM 40.3 °F 34.9 °F 29.8 °F 66% 30.03 in 10.0 mi ENE 8.1 mph - N/A   Overcast
8:35 AM 41.0 °F 37.1 °F 29.5 °F 64% 30.02 in 10.0 mi East 5.8 mph - N/A   Overcast
8:55 AM 42.3 °F 38.6 °F 28.0 °F 57% 30.02 in 10.0 mi East 5.8 mph - N/A   Overcast
9:15 AM 43.3 °F 37.7 °F 29.3 °F 58% 30.02 in 10.0 mi ENE 10.4 mph - N/A   Overcast
9:35 AM 44.6 °F 38.8 °F 28.2 °F 53% 30.02 in 10.0 mi East 11.5 mph - N/A   Overcast
9:55 AM 44.8 °F 39.9 °F 28.2 °F 52% 30.01 in 10.0 mi East 9.2 mph - N/A   Overcast
10:15 AM 45.9 °F 42.3 °F 29.7 °F 53% 30.01 in 10.0 mi East 6.9 mph - N/A   Overcast
10:35 AM 46.8 °F - 28.9 °F 50% 30.01 in 10.0 mi East 8.1 mph - N/A   Mostly Cloudy
10:55 AM 48.0 °F - 30.0 °F 50% 30.01 in 10.0 mi ENE 8.1 mph - N/A   Mostly Cloudy
11:15 AM 49.3 °F - 30.7 °F 49% 30.01 in 10.0 mi ENE 8.1 mph - N/A   Mostly Cloudy
11:35 AM 50.4 °F - 31.5 °F 48% 30.01 in 10.0 mi NE 4.6 mph - N/A   Scattered Clouds
11:55 AM 51.6 °F - 32.4 °F 48% 30.00 in 10.0 mi East 4.6 mph - N/A   Clear
12:15 PM 52.7 °F - 33.3 °F 48% 29.99 in 10.0 mi ENE 6.9 mph - N/A   Clear
12:35 PM 53.8 °F - 34.2 °F 47% 29.99 in 7.0 mi ENE 5.8 mph - N/A   Mostly Cloudy
12:55 PM 54.0 °F - 33.8 °F 46% 30.00 in 10.0 mi East 4.6 mph - N/A   Mostly Cloudy
1:15 PM 54.1 °F - 34.9 °F 48% 29.98 in 10.0 mi East 8.1 mph - N/A   Mostly Cloudy
1:35 PM 55.2 °F - 35.1 °F 47% 29.96 in 10.0 mi East 6.9 mph - N/A   Mostly Cloudy
1:55 PM 55.4 °F - 37.0 °F 50% 29.95 in 10.0 mi East 8.1 mph - N/A   Scattered Clouds
2:15 PM 56.1 °F - 37.8 °F 50% 29.94 in 10.0 mi ENE 6.9 mph - N/A   Clear
2:35 PM 55.9 °F - 37.2 °F 49% 29.93 in 10.0 mi East 9.2 mph - N/A   Clear
2:55 PM 56.5 °F - 37.0 °F 48% 29.92 in 10.0 mi ENE 11.5 mph - N/A   Clear
3:15 PM 56.7 °F - 37.8 °F 49% 29.91 in 10.0 mi ENE 8.1 mph - N/A   Clear
3:35 PM 56.8 °F - 37.4 °F 48% 29.90 in 10.0 mi ENE 6.9 mph 10.4 mph N/A   Clear
3:55 PM 56.8 °F - 37.0 °F 48% 29.90 in 10.0 mi ESE 9.2 mph - N/A   Clear
4:15 PM 56.7 °F - 37.4 °F 49% 29.90 in 10.0 mi East 10.4 mph - N/A   Scattered Clouds
4:35 PM 56.8 °F - 38.1 °F 50% 29.90 in 10.0 mi East 10.4 mph - N/A   Overcast
4:55 PM 56.3 °F - 38.8 °F 52% 29.88 in 10.0 mi East 9.2 mph - N/A   Mostly Cloudy
5:15 PM 55.9 °F - 39.4 °F 54% 29.86 in 10.0 mi ENE 10.4 mph - N/A   Clear
5:35 PM 55.4 °F - 39.7 °F 56% 29.86 in 10.0 mi ENE 10.4 mph - N/A   Clear
5:55 PM 55.0 °F - 39.7 °F 56% 29.85 in 10.0 mi East 9.2 mph - N/A   Scattered Clouds
6:15 PM 54.7 °F - 39.6 °F 57% 29.85 in 10.0 mi East 10.4 mph - N/A   Scattered Clouds
6:35 PM 54.5 °F - 38.7 °F 55% 29.85 in 10.0 mi East 9.2 mph - N/A   Mostly Cloudy
6:55 PM 54.0 °F - 38.8 °F 57% 29.84 in 10.0 mi East 10.4 mph - N/A   Mostly Cloudy
7:15 PM 52.9 °F - 39.2 °F 60% 29.83 in 10.0 mi East 8.1 mph - N/A   Clear
7:35 PM 52.2 °F - 39.7 °F 63% 29.83 in 10.0 mi East 9.2 mph - N/A   Scattered Clouds
7:55 PM 52.2 °F - 39.0 °F 61% 29.82 in 10.0 mi East 8.1 mph - N/A   Scattered Clouds
8:15 PM 52.3 °F - 38.3 °F 59% 29.82 in 10.0 mi East 9.2 mph - N/A   Mostly Cloudy
8:35 PM 51.8 °F - 38.1 °F 60% 29.82 in 10.0 mi East 9.2 mph - N/A   Overcast
8:55 PM 52.0 °F - 36.9 °F 56% 29.80 in 10.0 mi East 11.5 mph - N/A Rain Light Rain
9:15 PM 51.8 °F - 36.7 °F 56% 29.79 in 10.0 mi East 12.7 mph - N/A   Mostly Cloudy
9:35 PM 51.8 °F - 36.5 °F 56% 29.78 in 10.0 mi East 11.5 mph - N/A   Mostly Cloudy
9:55 PM 51.6 °F - 36.5 °F 56% 29.77 in 10.0 mi East 11.5 mph 18.4 mph N/A   Overcast
10:15 PM 51.8 °F - 35.8 °F 54% 29.78 in 10.0 mi East 11.5 mph - N/A   Overcast
10:35 PM 51.6 °F - 36.3 °F 56% 29.78 in 10.0 mi East 12.7 mph - N/A   Overcast
10:55 PM 50.9 °F - 37.2 °F 59% 29.76 in 10.0 mi East 11.5 mph - N/A   Light Drizzle
11:15 PM 50.2 °F - 37.6 °F 62% 29.77 in 10.0 mi East 8.1 mph - N/A   Light Drizzle
11:35 PM 50.2 °F - 37.4 °F 62% 29.76 in 10.0 mi ESE 8.1 mph - N/A   Overcast
11:55 PM 50.0 °F - 38.3 °F 64% 29.78 in 10.0 mi East 4.6 mph - N/A Rain Light Rain